When you browse on this site, cookies collect data to enhance your experience and personalize the content and advertising you see.
Visit our Privacy Policy to learn more. By continuing to use the site, you agree to this use of cookies and data.
  • în România
  • Lista ţărilor
  • Pe 7 zile
  • Temperatura apei
  • Hartă satelitară
  • Meteo pe hartă
  • Widget-uri
  • user-avatar
    Intrare

    Meteo pe oră la Fier

    Astăzi, 24 Martie, Duminică

    Timp Temperatura Precipitaţii Vânt Presiune Umiditate
    00:00 +14°C° 0 mm 1 m/s 763 mmHg 60%
    01:00 +14°C° 0 mm 1 m/s 763 mmHg 57%
    02:00 +13°C° 0 mm 1 m/s 763 mmHg 56%
    03:00 +13°C° 0 mm 1 m/s 763 mmHg 54%
    04:00 +13°C° 0 mm 2 m/s 763 mmHg 53%
    05:00 +13°C° 0 mm 2 m/s 763 mmHg 54%
    06:00 +14°C° 0 mm 2 m/s 763 mmHg 55%
    07:00 +15°C° 0 mm 2 m/s 763 mmHg 57%
    08:00 +18°C° 0 mm 1 m/s 763 mmHg 50%
    09:00 +20°C° 0 mm 1 m/s 763 mmHg 43%
    10:00 +21°C° 0 mm 0 m/s 763 mmHg 36%
    11:00 +23°C° 0 mm 1 m/s 763 mmHg 36%
    12:00 +24°C° 0 mm 2 m/s 763 mmHg 35%
    13:00 +24°C° 0 mm 3 m/s 763 mmHg 35%
    14:00 +22°C° 0 mm 3 m/s 762 mmHg 39%
    15:00 +21°C° 0 mm 3 m/s 762 mmHg 43%
    16:00 +20°C° 0 mm 3 m/s 762 mmHg 46%
    17:00 +19°C° 0 mm 3 m/s 762 mmHg 52%
    18:00 +17°C° 0 mm 2 m/s 762 mmHg 57%
    19:00 +15°C° 0 mm 1 m/s 762 mmHg 63%
    20:00 +14°C° 0 mm 1 m/s 762 mmHg 63%
    21:00 +14°C° 0 mm 1 m/s 762 mmHg 63%
    22:00 +13°C° 0 mm 0 m/s 762 mmHg 64%
    23:00 +12°C° 0 mm 0 m/s 762 mmHg 63%

    Mâine, 25 Martie, Luni

    Timp Temperatura Precipitaţii Vânt Presiune Umiditate
    00:00 +12°C° 0 mm 0 m/s 762 mmHg 62%
    01:00 +13°C° 0 mm 1 m/s 762 mmHg 62%
    02:00 +13°C° 0 mm 1 m/s 762 mmHg 62%
    03:00 +12°C° 0 mm 1 m/s 761 mmHg 62%
    04:00 +12°C° 0 mm 1 m/s 761 mmHg 62%
    05:00 +13°C° 0 mm 1 m/s 761 mmHg 61%
    06:00 +14°C° 0 mm 1 m/s 761 mmHg 61%
    07:00 +14°C° 0 mm 1 m/s 761 mmHg 60%
    08:00 +16°C° 0 mm 1 m/s 761 mmHg 54%
    09:00 +19°C° 0 mm 1 m/s 760 mmHg 48%
    10:00 +20°C° 0 mm 1 m/s 760 mmHg 41%
    11:00 +20°C° 0 mm 2 m/s 760 mmHg 41%
    12:00 +20°C° 0 mm 3 m/s 759 mmHg 40%
    13:00 +21°C° 0 mm 3 m/s 759 mmHg 40%
    14:00 +20°C° 0 mm 3 m/s 758 mmHg 42%
    15:00 +20°C° 0 mm 3 m/s 758 mmHg 44%
    16:00 +19°C° 0 mm 2 m/s 757 mmHg 47%
    17:00 +18°C° 0 mm 2 m/s 757 mmHg 52%
    18:00 +16°C° 0 mm 1 m/s 757 mmHg 57%
    19:00 +14°C° 0 mm 1 m/s 757 mmHg 63%
    20:00 +14°C° 0 mm 1 m/s 757 mmHg 62%
    21:00 +14°C° 0 mm 2 m/s 757 mmHg 61%
    22:00 +13°C° 0 mm 2 m/s 757 mmHg 60%
    23:00 +13°C° 0 mm 2 m/s 757 mmHg 60%

    Poimâine, 26 Martie, Marţi

    Timp Temperatura Precipitaţii Vânt Presiune Umiditate
    00:00 +13°C° 0 mm 2 m/s 757 mmHg 60%
    01:00 +13°C° 0 mm 2 m/s 757 mmHg 61%
    02:00 +13°C° 0 mm 2 m/s 757 mmHg 60%
    03:00 +13°C° 0 mm 2 m/s 756 mmHg 59%
    04:00 +13°C° 0 mm 2 m/s 756 mmHg 59%
    05:00 +13°C° 0 mm 2 m/s 757 mmHg 59%
    06:00 +14°C° 0 mm 2 m/s 757 mmHg 59%
    07:00 +14°C° 0 mm 2 m/s 757 mmHg 59%
    08:00 +16°C° 0 mm 2 m/s 757 mmHg 54%
    09:00 +18°C° 0 mm 1 m/s 757 mmHg 49%
    10:00 +20°C° 0 mm 1 m/s 757 mmHg 44%
    11:00 +19°C° 0 mm 2 m/s 757 mmHg 45%
    12:00 +20°C° 0 mm 3 m/s 757 mmHg 45%
    13:00 +21°C° 0 mm 4 m/s 757 mmHg 46%
    14:00 +20°C° 0.1 mm 4 m/s 757 mmHg 49%
    15:00 +19°C° 0.1 mm 4 m/s 758 mmHg 53%
    16:00 +18°C° 0.1 mm 4 m/s 758 mmHg 57%
    17:00 +17°C° 0 mm 3 m/s 758 mmHg 61%
    18:00 +16°C° 0 mm 2 m/s 759 mmHg 65%
    19:00 +14°C° 0 mm 1 m/s 760 mmHg 69%
    20:00 +14°C° 0 mm 1 m/s 760 mmHg 68%
    21:00 +14°C° 0 mm 2 m/s 761 mmHg 66%
    22:00 +13°C° 0 mm 2 m/s 761 mmHg 65%
    23:00 +13°C° 0 mm 2 m/s 761 mmHg 64%

    27 Martie, Miercuri

    Timp Temperatura Precipitaţii Vânt Presiune Umiditate
    00:00 +13°C° 0 mm 2 m/s 762 mmHg 63%
    01:00 +11°C° 0 mm 3 m/s 762 mmHg 62%
    02:00 +11°C° 0 mm 3 m/s 762 mmHg 62%
    03:00 +10°C° 0 mm 3 m/s 762 mmHg 63%
    04:00 +10°C° 0 mm 3 m/s 762 mmHg 63%
    05:00 +11°C° 0 mm 3 m/s 762 mmHg 62%
    06:00 +11°C° 0 mm 3 m/s 762 mmHg 60%
    07:00 +12°C° 0 mm 3 m/s 762 mmHg 59%
    08:00 +14°C° 0 mm 3 m/s 762 mmHg 52%
    09:00 +17°C° 0 mm 2 m/s 762 mmHg 45%
    10:00 +19°C° 0 mm 2 m/s 762 mmHg 39%
    11:00 +19°C° 0.1 mm 2 m/s 762 mmHg 39%
    12:00 +20°C° 0.1 mm 2 m/s 762 mmHg 39%
    13:00 +20°C° 0.1 mm 2 m/s 762 mmHg 40%
    14:00 +19°C° 0.5 mm 2 m/s 762 mmHg 47%
    15:00 +18°C° 0.5 mm 2 m/s 762 mmHg 55%
    16:00 +16°C° 0.5 mm 2 m/s 762 mmHg 62%
    17:00 +15°C° 1.5 mm 2 m/s 762 mmHg 70%
    18:00 +14°C° 1.5 mm 2 m/s 762 mmHg 77%
    19:00 +13°C° 1.5 mm 2 m/s 762 mmHg 85%
    20:00 +13°C° 0.5 mm 2 m/s 763 mmHg 86%
    21:00 +13°C° 0.5 mm 2 m/s 763 mmHg 87%
    22:00 +12°C° 0.5 mm 2 m/s 763 mmHg 87%
    23:00 +12°C° 0 mm 2 m/s 763 mmHg 86%

    28 Martie, Joi

    Timp Temperatura Precipitaţii Vânt Presiune Umiditate
    00:00 +12°C° 0 mm 2 m/s 762 mmHg 84%
    01:00 +12°C° 0 mm 2 m/s 762 mmHg 82%
    02:00 +12°C° 0 mm 2 m/s 762 mmHg 79%
    03:00 +12°C° 0 mm 2 m/s 762 mmHg 77%
    04:00 +12°C° 0 mm 2 m/s 762 mmHg 75%
    05:00 +11°C° 0 mm 3 m/s 762 mmHg 73%
    06:00 +12°C° 0 mm 3 m/s 763 mmHg 72%
    07:00 +12°C° 0 mm 4 m/s 763 mmHg 70%
    08:00 +13°C° 0 mm 4 m/s 763 mmHg 62%
    09:00 +14°C° 0 mm 5 m/s 763 mmHg 53%
    10:00 +16°C° 0 mm 6 m/s 764 mmHg 45%
    11:00 +16°C° 0 mm 5 m/s 764 mmHg 42%
    12:00 +17°C° 0 mm 5 m/s 764 mmHg 38%
    13:00 +19°C° 0 mm 5 m/s 763 mmHg 35%
    14:00 +19°C° 0 mm 4 m/s 763 mmHg 35%
    15:00 +19°C° 0 mm 4 m/s 763 mmHg 35%
    16:00 +19°C° 0 mm 3 m/s 763 mmHg 34%
    17:00 +17°C° 0 mm 3 m/s 764 mmHg 39%
    18:00 +14°C° 0 mm 3 m/s 764 mmHg 44%
    19:00 +14°C° 0 mm 2 m/s 764 mmHg 49%
    20:00 +13°C° 0 mm 2 m/s 765 mmHg 52%
    21:00 +12°C° 0 mm 2 m/s 765 mmHg 55%
    22:00 +12°C° 0 mm 2 m/s 765 mmHg 59%
    23:00 +10°C° 0 mm 2 m/s 765 mmHg 59%

    29 Martie, Vineri

    Timp Temperatura Precipitaţii Vânt Presiune Umiditate
    00:00 +10°C° 0 mm 2 m/s 766 mmHg 60%
    01:00 +9°C° 0 mm 2 m/s 766 mmHg 61%
    02:00 +9°C° 0 mm 2 m/s 766 mmHg 60%
    03:00 +9°C° 0 mm 2 m/s 766 mmHg 60%
    04:00 +8°C° 0 mm 2 m/s 766 mmHg 60%
    05:00 +9°C° 0 mm 2 m/s 766 mmHg 60%
    06:00 +10°C° 0 mm 3 m/s 766 mmHg 59%
    07:00 +10°C° 0 mm 3 m/s 766 mmHg 59%
    08:00 +12°C° 0 mm 3 m/s 766 mmHg 51%
    09:00 +14°C° 0 mm 3 m/s 766 mmHg 43%
    10:00 +17°C° 0 mm 3 m/s 766 mmHg 35%
    11:00 +18°C° 0 mm 3 m/s 766 mmHg 33%
    12:00 +18°C° 0 mm 3 m/s 765 mmHg 30%
    13:00 +19°C° 0 mm 3 m/s 765 mmHg 28%
    14:00 +19°C° 0 mm 3 m/s 765 mmHg 29%
    15:00 +19°C° 0 mm 4 m/s 765 mmHg 29%
    16:00 +19°C° 0 mm 4 m/s 764 mmHg 30%
    17:00 +17°C° 0 mm 4 m/s 765 mmHg 33%
    18:00 +14°C° 0 mm 4 m/s 765 mmHg 36%
    19:00 +13°C° 0 mm 4 m/s 765 mmHg 38%
    20:00 +12°C° 0 mm 4 m/s 765 mmHg 39%
    21:00 +11°C° 0 mm 4 m/s 766 mmHg 40%
    22:00 +10°C° 0 mm 4 m/s 766 mmHg 41%
    23:00 +10°C° 0 mm 3 m/s 766 mmHg 42%
    Arată mai mult